User: anonymous   Login
Location: Carlingford
(46.7848°N, 67.7474°W)
Time: 13:57:59
(UTC+00:00)
Language:

ISS - Orbit

View from above orbital plane
View from above orbital plane
View from above satellite
View from above satellite

Ground track
Ground track

The orbit data is extracted from the following two-line orbital elements,

1 25544U 98067A   23033.18918240  .00011442  00000-0  20561-3 0  9993
2 25544  51.6430 277.1923 0004788 304.2965 200.2412 15.50348828380857
Epoch (UTC): 02 February 2023 04:32:25
Eccentricity: 0.0004788
inclination: 51.6430°
perigee height: 412 km
apogee height: 419 km
right ascension of ascending node: 277.1923°
argument of perigee: 304.2965°
revolutions per day: 15.50348828
mean anomaly at epoch: 200.2412°
orbit number at epoch: 38085

The dashed part of the orbit path shows where the satellite is in the earth's shadow,  

DLR